Weather History for Jaipur, India

Change the Weather History Date:

Tuesday, January 28, 2014

  Actual Average Record
Temperature  
Mean Temperature 64 °F -  
Max Temperature 78 °F - - ()
Min Temperature 50 °F - - ()
Degree Days  
Heating Degree Days 1    
Growing Degree Days 14 (Base 50)    
Moisture  
Dew Point 44 °F    
Average Humidity 53    
Maximum Humidity 100    
Minimum Humidity 16    
Precipitation  
Precipitation 0.00 in - - ()
Sea Level Pressure  
Sea Level Pressure 30.08 in    
Wind  
Wind Speed 3 mph ()    
Max Wind Speed 25 mph    
Max Gust Speed -    
Visibility 1.5 miles    
Events      
T = Trace of Precipitation, MM = Missing Value Source: Averaged Metar Reports

Daily Weather History Graph

Daily Weather History Graph

Search for Another Location

Airport:

Trip Planner

Search our weather history database for the weather conditions in past years. The results will help you decide how hot, cold, wet, or windy it might be!

Date:

Astronomy

Jan. 28, 2014 Rise Set
Actual Time 7:14 AM IST 6:05 PM IST
Civil Twilight 6:49 AM IST 6:30 PM IST
Nautical Twilight 6:21 AM IST 6:57 PM IST
Astronomical Twilight 5:53 AM IST 7:25 PM IST
Moon 4:24 AM IST (1/28) 3:28 PM IST (1/28)
Length of Visible Light 11h 40m
Length of Day
10h 51m
Waning Crescent, 10% of the Moon is Illuminated
Jan 28
Waning Crescent
Jan 31
New
Feb 7
First Quarter
Feb 15
Full
Feb 22
Last Quarter

Hourly Weather History & Observations

Time (IST) Temp. Dew Point Humidity Pressure Visibility Wind Dir Wind Speed Gust Speed Precip Events Conditions
12:00 AM 59.0 °F 51.8 °F 77% 30.12 in 0.6 mi Variable 2.3 mph - N/A   Scattered Clouds
1:00 AM 59.0 °F 51.8 °F 77% 30.12 in 0.6 mi Variable 1.2 mph - N/A   Scattered Clouds
2:30 AM 54 °F 50 °F 82% 30.10 in 1 mi WNW 1.2 mph - -   Mist
3:00 AM 55.4 °F 50.0 °F 82% 30.09 in 0.6 mi Variable 2.3 mph - N/A   Scattered Clouds
4:00 AM 53.6 °F 51.8 °F 94% 30.09 in 0.6 mi Variable 2.3 mph - N/A   Scattered Clouds
5:00 AM 53.6 °F 50.0 °F 88% 30.09 in 0.6 mi Calm Calm - N/A   Scattered Clouds
5:30 AM 52 °F 50 °F 89% 30.10 in 1 mi West 2.3 mph - -   Mist
6:00 AM 50.0 °F 50.0 °F 100% 30.09 in 0.6 mi Variable 2.3 mph - N/A   Scattered Clouds
7:00 AM 51.8 °F 46.4 °F 82% 30.12 in 0.6 mi Calm Calm - N/A   Scattered Clouds
8:30 AM - 47 °F % 30.12 in 0 mi North 25.3 mph - -  
9:00 AM 64.4 °F 41.0 °F 42% 30.15 in 1.6 mi Variable 3.5 mph - N/A   Haze
11:00 AM 73.4 °F 35.6 °F 25% 30.15 in 2.5 mi WNW 6.9 mph - N/A   Haze
11:30 AM 73 °F 39 °F 19% 30.10 in 2 mi NW 6.9 mph - -   Haze
12:00 PM 75.2 °F 35.6 °F 24% 30.12 in 2.5 mi WNW 8.1 mph - N/A   Haze
1:00 PM 77.0 °F 35.6 °F 22% 30.09 in 2.5 mi WNW 5.8 mph - N/A   Haze
2:00 PM 75.2 °F 35.6 °F 24% 30.06 in 2.5 mi West 8.1 mph - N/A   Haze
3:00 PM 75.2 °F 33.8 °F 22% 30.04 in 2.5 mi West 8.1 mph - N/A   Haze
4:00 PM 75.2 °F 35.6 °F 24% 30.04 in 2.5 mi West 4.6 mph - N/A   Haze
5:00 PM 73.4 °F 33.8 °F 23% 30.01 in 2.5 mi WNW 6.9 mph - N/A   Haze
5:30 PM 73 °F 36 °F 16% 29.98 in 2 mi WNW 5.8 mph - -   Haze
6:00 PM 71.6 °F 37.4 °F 29% 30.01 in 2.2 mi Variable 1.2 mph - N/A   Haze
8:00 PM 64.4 °F 44.6 °F 49% 30.04 in 1.9 mi Variable 1.2 mph - N/A   Haze
8:30 PM 63 °F 46 °F 44% 30.03 in 1 mi Calm Calm - -   Haze
9:00 PM 64.4 °F 48.2 °F 56% 30.06 in 1.9 mi Variable 1.2 mph - N/A   Haze
10:00 PM 62.6 °F 48.2 °F 59% 30.06 in 1.9 mi Variable 1.2 mph - N/A   Haze
11:00 PM 59.0 °F 48.2 °F 67% 30.06 in 1.9 mi Calm Calm - N/A   Haze
11:30 PM 59 °F 48 °F 58% 30.04 in 1 mi Calm Calm - -   Mostly Cloudy
11:30 PM 59.0 °F 48.2 °F 67% 30.06 in 1.9 mi Calm Calm - N/A   Haze